Gillette, WY

11:50 PM MST on February 19, 2017 (GMT -0700)
Gillette-Campbell County

Weather History for KGCC - August, 2012

Change the Weather History Date:

Sunday, August 12, 2012

  Actual Average Record
Temperature  
Mean Temperature 69 °F 71 °F  
Max Temperature 82 °F 87 °F 104 °F (1972)
Min Temperature 55 °F 55 °F 40 °F (1952)
Degree Days  
Heating Degree Days 0 1  
Month to date heating degree days 11 9  
Since 1 June heating degree days 73 170  
Since 1 July heating degree days 13 28  
Cooling Degree Days 4 7  
Month to date cooling degree days 99 87  
Year to date cooling degree days 626 369  
Since 1 June cooling degree days 616 361  
Growing Degree Days 18 (Base 50)    
Moisture  
Dew Point 47 °F    
Average Humidity 57    
Maximum Humidity 83    
Minimum Humidity 30    
Precipitation  
Precipitation 0.01 in 0.03 in 1.00 in (1988)
Month to date precipitation 0.20 0.45  
Year to date precipitation 7.54 9.98  
Sea Level Pressure  
Sea Level Pressure 30.08 in    
Wind  
Wind Speed 9 mph (North)    
Max Wind Speed 18 mph    
Max Gust Speed 21 mph    
Visibility 10 miles    
Events Thunderstorm    
T = Trace of Precipitation, MM = Missing Value Source: NWS Daily Summary

Daily Weather History Graph

Daily Weather History Graph

Search for Another Location

Airport or City:

Trip Planner

Search our weather history database for the weather conditions in past years. The results will help you decide how hot, cold, wet, or windy it might be!

Date:

Astronomy

Aug. 12, 2012 Rise Set
Actual Time 6:02 AM MDT 8:10 PM MDT
Civil Twilight 5:30 AM MDT 8:42 PM MDT
Nautical Twilight 4:51 AM MDT 9:21 PM MDT
Astronomical Twilight 4:07 AM MDT 10:04 PM MDT
Moon 1:12 AM MDT (8/12) 4:42 PM MDT (8/12)
Length of Visible Light 15h 12m
Length of Day
14h 08m
Waning Crescent, 23% of the Moon is Illuminated
Aug 12
Waning Crescent
Aug 17
New
Aug 24
First Quarter
Aug 31
Full
Sep 8
Last Quarter

Hourly Weather History & Observations

Time (MDT) Temp. Dew Point Humidity Pressure Visibility Wind Dir Wind Speed Gust Speed Precip Events Conditions
12:53 AM 54.0 °F 48.0 °F 80% 30.05 in 10.0 mi West 5.8 mph - N/A   Clear
1:53 AM 55.9 °F 46.9 °F 72% 30.05 in 10.0 mi West 8.1 mph - N/A   Clear
2:53 AM 57.0 °F 46.9 °F 69% 30.06 in 10.0 mi WSW 8.1 mph - N/A   Clear
3:53 AM 59.0 °F 46.0 °F 62% 30.05 in 10.0 mi West 11.5 mph - N/A   Clear
4:53 AM 57.9 °F 44.1 °F 60% 30.08 in 10.0 mi WSW 10.4 mph - N/A   Clear
5:53 AM 57.9 °F 44.1 °F 60% 30.12 in 10.0 mi West 13.8 mph - N/A   Clear
6:53 AM 59.0 °F 44.1 °F 58% 30.12 in 10.0 mi West 8.1 mph - N/A   Clear
7:53 AM 66.0 °F 46.0 °F 48% 30.11 in 10.0 mi West 8.1 mph - N/A   Clear
8:53 AM 70.0 °F 50.0 °F 49% 30.12 in 10.0 mi NW 4.6 mph - N/A   Clear
9:53 AM 71.6 °F 51.8 °F 50% 30.23 in 10.0 mi North 9.2 mph - N/A   Clear
10:53 AM 75.0 °F 48.9 °F 40% 30.12 in 10.0 mi Variable 5.8 mph - N/A   Clear
11:53 AM 77.0 °F 46.0 °F 33% 30.12 in 10.0 mi NNE 10.4 mph - N/A   Clear
12:53 PM 77.0 °F 46.0 °F 33% 30.10 in 10.0 mi Variable 4.6 mph 16.1 mph N/A   Clear
1:53 PM 80.1 °F 48.0 °F 32% 30.08 in 10.0 mi NE 10.4 mph 19.6 mph N/A   Clear
2:53 PM 81.0 °F 46.0 °F 29% 30.06 in 10.0 mi ENE 12.7 mph - N/A   Scattered Clouds
3:53 PM 81.0 °F 46.0 °F 29% 30.05 in 10.0 mi North 10.4 mph 18.4 mph N/A   Clear
4:53 PM 81.0 °F 46.0 °F 29% 30.05 in 10.0 mi NNE 8.1 mph - N/A   Clear
5:53 PM 79.0 °F 46.0 °F 31% 30.04 in 10.0 mi East 11.5 mph - N/A   Clear
6:53 PM 77.0 °F 46.9 °F 34% 30.04 in 10.0 mi East 10.4 mph - N/A   Clear
7:53 PM 73.0 °F 46.9 °F 39% 30.04 in 10.0 mi East 9.2 mph - N/A   Clear
8:53 PM 66.9 °F 48.0 °F 51% 30.05 in 10.0 mi ENE 5.8 mph - N/A   Clear
9:53 PM 66.0 °F 48.9 °F 54% 30.07 in 10.0 mi ESE 6.9 mph - N/A   Mostly Cloudy
10:53 PM 66.9 °F 50.0 °F 54% 30.06 in 10.0 mi ESE 4.6 mph - N/A   Mostly Cloudy
11:53 PM 66.0 °F 50.0 °F 56% 30.05 in 10.0 mi ESE 6.9 mph - N/A Thunderstorm Thunderstorm